Regional Weather Roundup
Issued by NWS Sterling, VA

Home | Current Version | Previous Version | Text Only | Print | Product List | Glossary Off
Versions: 1 2 3 4 5 6 7 8 9 10 11 12 13 14 15 16 17 18 19 20 21 22 23 24 25 26 27 28 29 30 31 32 33 34 35 36 37 38 39 40 41 42 43 44 45 46 47 48 49 50

000
ASUS41 KLWX 200511
RWRLWX

REGIONAL WEATHER ROUNDUP
NATIONAL WEATHER SERVICE BALTIMORE MD/WASHINGTON DC
1200 AM EST SAT JAN 20 2018

Note: "FAIR" indicates few or no clouds below 12,000 feet
with no significant weather and/or obstructions to visibility.
 TC=TEMPERATURE CELSIUS

 * =Non NWS site. Station does not report precipitation (e.g. rain,
    snow, etc.), thunder, or fog.

DCZ001-MDZ009-015-VAZ040>042-051-053>054-200600-
WASHINGTON METRO

CITY           SKY/WX    TMP DP  RH WIND       PRES   REMARKS
WASHINGTON NAT FAIR      33  21  61 S8        30.04F WCI  26
DULLES         FAIR      25  17  72 SE3       30.02F
ANDREWS AFB    FAIR      28  16  60 SW6       30.02F WCI  22
FT BELVOIR     FAIR      25  15  64 CALM        N/A
COLLEGE PARK*  FAIR      26  17  69 CALM      30.02F
LEESBURG*      FAIR      30  21  69 W5        30.02F WCI  25
MANASSAS*      FAIR      21  17  84 CALM      30.04F
GAITHERSBURG*  FAIR      28  19  69 CALM      30.02F

$$

MDZ006>007-011-014-200600-
BALTIMORE METRO

CITY           SKY/WX    TMP DP  RH WIND       PRES   REMARKS
BWI AIRPORT    FAIR      29  19  66 CALM      30.01F
MD SCIENCE CTR   N/A     35  23  61 MISG      30.02F
MARTIN STATE   FAIR      28  23  80 CALM      30.04S
ANNAPOLIS      FAIR      31  25  78 CALM      30.03F
FORT MEADE*    FAIR      25  21  86 CALM      30.05F

$$

MDZ012-015-019>023-200600-
MARYLAND EASTERN SHORE

CITY           SKY/WX    TMP DP  RH WIND       PRES   REMARKS
OCEAN CITY     FAIR      33  26  75 SW5       30.06F WCI  29
SALISBURY      FAIR      31  18  58 CALM      30.05F
BAY BRIDGE AP* FAIR      30  19  64 S5        30.03F WCI  25
CAMBRIDGE*       N/A     30  23  74 SE3       30.04F
EASTON*        FAIR      33  18  54 CALM      30.07S

$$

MDZ017>025-200600-
SOUTHERN MARYLAND

CITY           SKY/WX    TMP DP  RH WIND       PRES   REMARKS
PATUXENT RIVER NOT AVBL
ST INIGOES     FAIR      27  22  81 CALM      30.05S
LEONARDTOWN*   FAIR      36  14  41 SW6       30.05F WCI  31

$$

MDZ003>005-200600-
NORTH CENTRAL MARYLAND

CITY           SKY/WX    TMP DP  RH WIND       PRES   REMARKS
FREDERICK*     FAIR      34  19  55 SE6       30.04F WCI  29
HAGERSTOWN APT FAIR      42  20  41 SW5       30.00F
WESTMINSTER*   FAIR      39  23  52 W10       29.99F WCI  32

$$

MDZ501>502-200600-
WESTERN MARYLAND

CITY           SKY/WX    TMP DP  RH WIND       PRES   REMARKS
OAKLAND*       FAIR      32  16  51 SW20G29   29.95F WCI  20
CUMBERLAND*    FAIR      39  19  45 S3        30.05F

$$

VAZ025>031-200600-
SHENANDOAH VALLEY

CITY           SKY/WX    TMP DP  RH WIND       PRES   REMARKS
WINCHESTER*    FAIR      34  14  44 SW5       30.03S WCI  30
FRONT ROYAL*   FAIR      34  12  40 MISG      30.01F
LURAY*         FAIR      30  18  59 CALM      30.03F
NEW MARKET*    FAIR      23  16  73 CALM      30.03S
STAUNTON*      FAIR      38   5  24 S10       30.06S WCI  31
WAYNESBORO*    FAIR      40   1  19 SW7       30.05F

$$

WVZ021-048>050-054>055-200600-
EASTERN WEST VIRGINIA PANHANDLE

CITY           SKY/WX    TMP DP  RH WIND       PRES   REMARKS
MARTINSBURG    FAIR      33  21  61 S5        30.01S WCI  29
PETERSBURG*    FAIR      37  22  56 CALM      30.02S

$$

VAZ036>039-050-200600-
CENTRAL FOOTHILLS

CITY           SKY/WX    TMP DP  RH WIND       PRES   REMARKS
CHARLOTTESVILL FAIR      40   8  26 S6        30.03F
CULPEPER*      FAIR      25  15  64 CALM      30.04F
ORANGE*        FAIR      28  14  54 CALM      30.04F
GORDONSVILLE*  FAIR      28  17  63 SW3       30.03F
WARRENTON*     FAIR      22  14  73 CALM      30.03S

$$

VAZ055>057-200600-
NORTH AND CENTRAL PIEDMONT

CITY           SKY/WX    TMP DP  RH WIND       PRES   REMARKS
FREDERICKSBRG* FAIR      39  14  36 SW3       30.04F
STAFFORD*      FAIR      33  13  44 CALM      30.08F

$$

NCZ024-NYZ072-PAZ021-071-VAZ022-071-200600-
OTHER REGIONAL OBSERVATIONS

CITY           SKY/WX    TMP DP  RH WIND       PRES   REMARKS
NEW YORK CITY  FAIR      39  19  44 VRB3      29.94F
PHILADELPHIA   FAIR      35  19  52 SW9       30.01F WCI  28
PITTSBURGH     FAIR      36  18  48 SW14      29.95F WCI  27
ROANOKE        FAIR      40   3  21 W6        30.12F
RICHMOND       FAIR      36  11  35 SW5       30.06F WCI  32
RALEIGH        FAIR      33  24  69 CALM      30.15F

$$

ANZ530>537-200600-
MARINE OBSERVATIONS

STATION/POSITION TIME  TEMP    WIND        PRES
                       AIR SEA DIR/SP/G
                 (UTC) (F)     (DEG/KT/KT) (MB)
THOMAS PT LIGHT  0500   35 32  190/  8/  8   N/A
BALT KEY BRIDGE  0442   35     240/  1/  2 1016.8F
COVE POINT       0442   43     240/  9/ 14 1017.8F
LEWISETTA        0442   41 32  250/  8/ 10 1017.7F
SOLOMONS ISLAND  0442   35 34  250/  2/  3 1017.0F
PINEY POINT      0442          270/  3/  4   N/A

$$




USA.gov is the U.S. government's official web portal to all federal, state and local government web resources and services.